sat.trackr.live / text

‹ back to catalog

STARLINK-4514

NORAD 53551 · 2022-101AA

PAYLOAD ACTIVE UNKNOWN

§ Identity

Operator
Country
US
Launch date
2022-08-19
Launch site
AFETR
Launch vehicle
Mass (kg)
RCS (m²)

Purposes: comms

External: N2YO · Heavens-Above · Gunter

§ Orbital elements

Epoch: 2026-09-19T09:15:51.556032Z

Period
93.85 min
Inclination
53.1600°
Eccentricity
0.0001867
Mean motion
15.34340616 rev/d
Perigee alt
461.6 km
Apogee alt
464.2 km
Semi-major
6,841.0 km
B*
3.7214e-4
RAAN
262.9115°
Arg perigee
86.6240°
Mean anomaly
273.4976°
Rev number
22,636

§ Raw data

STARLINK-45141 53551U 22101AA  26262.38601338  .00012194  00000+0  37214-3 0  99912 53551  53.1600 262.9115 0001867  86.6240 273.4976 15.34340616226360

JSON: /api/v1/satellites/53551 · /tle

For live sub-satellite position, see the globe view (requires WebGL).

§ Visibility from observer

Set your observer location to see the next 7 days of passes ≥ 10°. The values pass through the URL so the page stays shareable.

No JS? Fill the form by hand. The geolocation button needs JavaScript.